Satellite: RS-30
Catalog number: 32953
Epoch time:      10316.06860192
Element set:     208
Inclination:      082.4988 deg
RA of node:       297.7209 deg
Eccentricity:    0.0019509
Arg of perigee:   136.1000 deg
Mean anomaly:     224.1632 deg
Mean motion:   12.43009222 rev/day
Decay rate:        1.0e-07 rev/day^2
Epoch rev:           11211
Checksum:              251

Satellite: TACSAT-3
Catalog number: 35001
Epoch time:      10314.74981748
Element set:    0442
Inclination:      040.4545 deg
RA of node:       052.7320 deg
Eccentricity:    0.0022552
Arg of perigee:   019.6686 deg
Mean anomaly:     340.4996 deg
Mean motion:   15.43502525 rev/day
Decay rate:      7.524e-05 rev/day^2
Epoch rev:           08327
Checksum:              286

Satellite: PHARMSAT
Catalog number: 35002
Epoch time:      10315.56696832
Element set:     401
Inclination:      040.4686 deg
RA of node:       045.3982 deg
Eccentricity:    0.0024696
Arg of perigee:   028.4528 deg
Mean anomaly:     331.7625 deg
Mean motion:   15.43855331 rev/day
Decay rate:      6.930e-05 rev/day^2
Epoch rev:            8342
Checksum:              293

Satellite: HAWKSAT1
Catalog number: 35003
Epoch time:      10315.55687047
Element set:     435
Inclination:      040.4580 deg
RA of node:       034.9094 deg
Eccentricity:    0.0022704
Arg of perigee:   051.3050 deg
Mean anomaly:     308.9791 deg
Mean motion:   15.48887113 rev/day
Decay rate:     1.6817e-04 rev/day^2
Epoch rev:            8354
Checksum:              288

Satellite: CP6
Catalog number: 35004
Epoch time:      10316.21829784
Element set:     434
Inclination:      040.4594 deg
RA of node:       028.4353 deg
Eccentricity:    0.0021720
Arg of perigee:   062.1650 deg
Mean anomaly:     298.1441 deg
Mean motion:   15.50525360 rev/day
Decay rate:     2.1143e-04 rev/day^2
Epoch rev:            8366
Checksum:              266

Satellite: AEROCUB3
Catalog number: 35005
Epoch time:      10316.24390009
Element set:     517
Inclination:      040.4648 deg
RA of node:       012.6913 deg
Eccentricity:    0.0022667
Arg of perigee:   094.3489 deg
Mean anomaly:     265.9928 deg
Mean motion:   15.69527473 rev/day
Decay rate:    1.49423e-03 rev/day^2
Epoch rev:            8384
Checksum:              317

Satellite: CASTOR
Catalog number: 35694
Epoch time:      10230.44082147
Element set:     655
Inclination:      051.5930 deg
RA of node:       222.0149 deg
Eccentricity:    0.0004218
Arg of perigee:   308.0851 deg
Mean anomaly:     053.0105 deg
Mean motion:   16.48877011 rev/day
Decay rate:   7.179566e-02 rev/day^2
Epoch rev:            6110
Checksum:              273

Satellite: METEOR-M
Catalog number: 35865
Epoch time:      10316.05541018
Element set:     826
Inclination:      098.7396 deg
RA of node:       008.6516 deg
Eccentricity:    0.0002395
Arg of perigee:   321.9339 deg
Mean anomaly:     038.1664 deg
Mean motion:   14.21832865 rev/day
Decay rate:       1.76e-06 rev/day^2
Epoch rev:            5973
Checksum:              311

Satellite: RS-38
Catalog number: 35869
Epoch time:      10316.08099551
Element set:     838
Inclination:      098.7381 deg
RA of node:       008.7174 deg
Eccentricity:    0.0004079
Arg of perigee:   307.5985 deg
Mean anomaly:     052.4797 deg
Mean motion:   14.21993052 rev/day
Decay rate:       1.77e-06 rev/day^2
Epoch rev:            5974
Checksum:              349

/EX




More information about the Keps mailing list